Temp_Advection
nan nan nan nan nan nan nan nan nan nan nan nan nan nan nan nan nan nan nan nan nan nan nan nan nan nan nan nan nan nan nan nan nan nan nan nan nan nan nan nan nan nan nan nan
nan -0 -0 -0 -0 -0 -0 -0 -0 0 -0 -0 0 -0 0 -0 -0 -0 -0 -0 0 0 0 0 -0 0 0 0 -0 0 0 0 -0 -0 -0 -0 0 -0 -0 -0 0 0 0 nan
nan -0 -0 -0 -0 -0 -0 -0 -0 0 -0 -0 -0 -0 -0 -0 -0 -0 -0 -0 0 0 0 -0 0 0 0 0 0 0 -0 0 -0 -0 -0 0 0 -0 0 0 -0 -0 -1 nan
nan -1 -0 -0 -0 0 -0 -0 0 0 -0 -0 0 0 0 -0 0 -0 -0 0 0 0 0 0 -0 0 -0 0 0 0 0 0 -0 -0 -0 -0 0 -0 0 -0 -1 -0 -0 nan
nan -2 -1 -0 -0 -0 -0 -0 -0 -0 -0 0 0 0 -0 0 -0 -0 -0 -0 -0 0 0 0 -0 0 0 0 0 0 0 -0 0 -0 -0 0 0 -0 -0 -1 -0 -0 -0 nan
nan -1 -1 -1 -0 -0 -0 -0 -0 0 0 0 0 -0 -0 0 0 0 -0 -0 0 0 -0 -0 -0 0 0 0 -0 -0 -0 0 -0 -0 -0 -0 -0 -1 -1 -0 -0 -0 -0 nan
nan 0 -0 -1 -0 -0 0 0 -0 0 0 -0 -0 -0 0 0 0 0 0 0 -0 -0 -0 -0 0 1 1 0 -0 0 -0 -0 -0 0 -0 -0 -1 -0 -0 -0 -0 -0 -0 nan
nan 0 -0 -0 -0 -0 0 0 -0 0 0 -0 -0 -0 0 0 0 0 0 0 0 0 0 -0 -0 -0 -0 0 0 0 0 -0 0 0 -0 -1 -0 -0 -0 -0 -0 0 -0 nan
nan -0 -0 -0 -0 -0 -0 0 0 0 0 -0 -0 0 0 0 0 -0 -0 0 0 0 0 0 0 -0 -0 0 0 -0 -0 -0 -0 0 -0 -1 -0 -0 -0 -0 0 -0 -0 nan
nan -0 -0 -0 0 -0 -0 0 0 0 -0 -0 0 0 -0 -0 0 0 0 0 0 1 0 0 0 -0 0 0 0 0 0 0 0 0 0 -1 -1 0 0 0 -0 -1 -0 nan
nan -0 -0 0 -0 0 0 -0 0 0 -0 -1 -1 -0 -0 0 0 -0 -0 -0 0 -0 0 0 -0 -0 0 0 0 -0 -0 0 -0 0 0 -1 -1 0 -0 -0 -0 -0 0 nan
nan -0 -0 -0 0 0 0 0 0 0 -0 -1 -0 0 -0 -0 -0 -0 0 0 -0 -0 -0 -0 -0 -0 0 0 -0 -0 -0 -1 -0 -1 -1 -1 -1 -1 -1 0 0 0 0 nan
nan -0 -0 -0 -0 0 0 1 1 0 -0 -1 -1 -1 0 0 -0 0 0 -0 -0 0 0 -0 0 0 -0 0 -0 -0 -0 -0 -0 -0 -0 -1 -2 -1 -1 -0 0 0 0 nan
nan -0 -0 -0 -0 0 0 0 1 1 0 -0 -1 -0 -0 0 0 1 0 0 0 0 0 0 0 -0 -0 0 -0 -0 -0 -0 -0 -1 -3 -1 -2 -1 -0 1 0 0 1 nan
nan -0 -0 -0 -0 0 0 1 1 0 0 -0 -1 -1 -1 0 1 1 1 1 1 0 0 0 -0 -0 0 0 -0 -1 -1 -0 -1 -2 -1 -0 -1 -0 -0 -0 0 1 1 nan
nan -0 -0 -0 -0 0 1 0 -1 1 1 0 -0 -0 -0 0 1 1 1 1 1 0 0 -0 -1 -0 0 0 -0 -3 -2 -0 -1 -2 -1 0 0 1 -0 -0 -0 0 0 nan
nan -0 -0 -0 -0 -0 0 -0 -0 0 1 0 0 -0 0 0 0 0 0 1 0 0 0 0 -0 -0 1 0 -2 -4 -0 0 0 2 2 0 -0 -0 -1 0 0 0 0 nan
nan -0 -0 -0 -0 -0 -0 -0 0 1 -0 0 0 0 0 0 0 0 0 0 0 -0 0 0 0 -0 0 -0 -3 -1 0 -0 -1 -0 0 -1 -0 -0 -1 -0 1 0 0 nan
nan -0 -1 -0 -0 0 0 0 1 2 0 0 0 -0 0 -0 -0 -0 0 0 -0 0 0 -0 0 -0 -1 -2 -1 -0 -0 -0 -1 -0 -1 -0 -0 0 0 -1 0 0 0 nan
nan -0 -0 -0 0 0 0 1 1 1 0 0 0 -0 0 -0 0 -0 -0 -0 -0 -0 -0 0 -0 -0 -3 -3 1 0 0 0 -0 0 0 -1 -2 -1 -0 -0 -0 1 1 nan
nan 0 0 0 0 0 0 0 0 0 0 0 -0 -0 -0 -0 -0 -0 -0 -0 0 -0 0 0 -0 -0 -1 -1 -0 -1 -0 1 1 1 0 -0 -1 -2 -1 -0 1 1 0 nan
nan -0 0 0 0 0 0 0 -0 -0 -0 -0 -0 -0 -0 0 -0 -0 0 -0 -0 0 -0 -0 -0 -1 -3 -1 1 1 1 -0 -0 0 1 0 -0 -1 -1 -1 0 1 0 nan
nan 0 0 0 0 0 0 0 0 -0 -0 -0 -0 -0 0 0 0 0 -0 -0 0 -0 0 0 -0 -2 -1 -0 -0 0 1 1 0 -0 0 0 0 0 -0 -1 0 0 0 nan
nan 0 0 0 -0 -0 -0 -0 -0 -1 -0 -0 -0 0 0 0 0 -0 -0 0 -0 -0 0 -0 -1 -1 -0 -0 -0 -0 -0 0 0 -0 -0 -0 0 0 -0 -0 0 0 0 nan
nan 0 0 -0 -1 -0 -0 -1 -0 0 0 -0 -0 0 -0 -0 -0 -0 0 0 -0 0 0 -1 -1 0 -0 -0 -1 -0 -1 -0 0 0 0 -0 -0 -0 -0 0 0 0 0 nan
nan 0 -0 -0 -0 0 -0 -0 0 0 0 0 0 -0 -0 0 -0 -0 0 0 0 -0 -1 -2 -0 -0 -0 -0 -0 0 0 -0 -0 0 0 0 0 -0 -0 -0 -0 0 0 nan
nan nan nan nan nan nan nan nan nan nan nan nan nan nan nan nan nan nan nan nan nan nan nan nan nan nan nan nan nan nan nan nan nan nan nan nan nan nan nan nan nan nan nan nan
Wind_Speed
22 22 21 19 19 15 8 3 3 9 9 6 5 2 2 1 3 3 2 1 3 3 1 2 3 1 2 6 6 3 3 3 4 8 4 7 5 6 5 3 3 3 2 6
22 20 20 19 17 17 10 4 3 5 6 3 2 0 1 1 3 4 3 2 2 3 3 2 0 3 5 8 5 2 3 2 2 4 5 2 4 6 6 3 2 7 3 6
21 20 18 18 16 14 9 3 2 2 3 5 6 3 2 2 2 2 3 2 3 2 3 4 2 3 4 11 6 5 2 3 6 5 3 3 4 5 8 7 3 4 10 9
24 19 18 16 14 11 7 2 1 1 1 2 3 4 5 2 2 3 5 3 5 3 2 4 3 3 3 3 5 5 4 5 4 7 12 11 12 13 12 12 12 8 2 8
26 20 18 16 12 9 5 2 1 1 2 2 1 2 7 7 4 6 4 4 3 4 4 4 4 1 3 5 4 4 3 4 3 6 11 7 9 14 16 17 18 18 21 25
20 22 19 16 11 7 3 3 1 1 2 2 4 4 4 6 9 7 7 5 1 3 6 5 8 10 9 8 7 6 6 3 2 5 6 9 8 9 15 9 8 18 17 27
18 17 18 16 12 7 5 4 4 2 4 3 5 3 6 6 6 4 4 8 5 4 2 11 14 18 19 14 12 12 3 2 2 5 6 2 7 4 7 11 13 18 16 17
17 15 15 15 12 9 6 5 3 3 3 6 7 9 5 4 6 5 9 10 7 6 5 3 5 3 2 3 5 7 8 4 3 2 3 9 7 3 5 6 7 10 19 18
16 14 13 13 13 10 9 6 6 4 3 5 5 2 6 4 3 2 6 7 7 5 3 2 3 4 4 2 1 3 4 5 3 2 2 5 5 2 4 3 5 8 9 10
16 15 14 11 12 12 11 10 9 7 5 8 7 4 3 4 4 2 3 5 4 10 3 3 4 4 3 3 5 5 4 6 12 10 6 9 9 6 6 1 6 10 12 10
19 15 13 14 13 14 13 12 12 12 7 19 21 15 11 7 5 3 3 2 3 3 4 4 4 4 5 2 5 7 8 7 5 7 6 10 11 7 7 6 2 11 12 13
20 19 15 14 15 15 15 17 15 14 16 13 16 16 16 23 19 10 9 4 3 9 2 2 2 3 2 4 4 3 3 8 6 11 8 8 26 13 16 8 8 12 15 16
22 20 17 16 15 19 20 18 17 15 14 27 22 21 16 24 35 25 10 9 11 6 6 4 3 5 4 5 6 4 5 11 4 1 9 21 29 31 32 30 28 22 21 19
20 23 20 18 18 18 23 23 18 17 7 6 9 8 13 11 13 25 32 26 12 9 9 5 3 3 8 4 4 6 7 5 5 10 23 21 40 36 36 33 23 27 26 27
21 22 23 20 20 20 23 25 23 19 15 4 10 18 26 24 22 18 21 30 27 15 4 3 3 6 3 4 1 12 14 14 8 13 22 18 25 22 19 15 16 14 19 21
19 21 21 21 21 19 23 12 25 28 26 6 3 7 13 13 14 18 20 19 20 19 7 6 9 14 4 4 4 15 27 37 42 39 42 34 42 40 31 23 18 16 15 18
22 19 16 18 18 19 23 8 4 12 26 4 6 6 4 7 8 8 10 14 10 11 8 8 8 6 9 3 10 28 25 27 35 44 39 35 38 26 25 24 23 21 22 20
20 22 21 22 19 20 27 27 14 15 18 9 3 3 3 7 4 2 7 7 9 8 6 4 5 4 10 6 26 48 42 37 36 37 34 40 41 37 33 31 26 24 23 19
17 18 21 22 21 12 20 26 23 31 13 7 6 3 3 10 6 6 7 7 3 5 4 4 5 3 8 17 27 29 27 22 29 29 28 27 31 33 33 30 29 28 26 22
14 13 7 5 6 12 10 14 15 18 9 9 4 8 3 12 10 5 6 6 3 3 6 6 4 7 27 52 47 38 37 35 34 33 37 30 35 34 27 29 33 34 29 22
9 5 6 9 7 7 7 7 8 8 4 7 7 21 7 13 4 4 9 3 3 3 3 5 3 4 8 11 19 20 19 23 27 32 40 37 32 30 26 20 21 24 24 22
5 5 6 7 6 8 5 4 4 5 5 8 7 9 15 8 8 5 7 3 4 5 9 3 4 6 18 13 23 25 22 18 20 19 21 23 29 30 28 24 21 18 17 15
10 5 5 6 8 6 6 8 3 4 7 11 11 4 13 9 9 4 3 5 5 9 3 4 6 11 15 17 20 23 22 21 18 17 16 19 21 20 22 20 15 15 15 11
8 7 6 6 5 6 5 4 4 8 6 17 19 5 6 8 6 3 4 4 3 3 3 7 3 7 6 11 22 23 26 24 20 19 18 16 13 15 16 15 14 13 10 7
12 8 6 8 11 6 3 9 6 4 8 19 8 4 7 3 4 4 4 3 3 6 5 3 5 3 12 19 25 29 27 24 22 19 19 13 5 13 14 11 11 9 8 5
10 12 6 7 3 4 5 7 5 9 16 13 4 2 3 4 3 4 6 7 8 5 4 12 5 14 19 19 23 27 20 22 20 16 16 12 7 11 15 15 14 12 8 6
7 8 25 17 9 12 7 8 6 9 14 4 4 6 8 2 3 5 5 6 4 7 6 6 18 13 20 26 28 24 17 14 14 15 16 11 7 9 13 19 18 13 10 9
Wind_Direction
1 2 1 359 5 8 354 2 52 4 3 48 53 62 12 53 143 155 283 303 331 19 358 212 219 204 112 153 170 178 166 191 231 228 246 174 177 191 175 141 200 233 243 271
349 356 355 355 354 9 7 360 349 19 25 91 36 249 65 358 151 206 192 216 90 27 321 341 188 189 157 162 182 201 183 252 349 360 350 291 216 206 194 166 120 220 172 260
344 343 348 351 346 355 1 356 359 34 77 102 132 150 208 188 224 221 204 227 119 197 231 217 248 213 212 193 200 167 130 240 202 204 228 128 226 219 210 178 181 209 229 278
343 338 338 342 342 337 352 21 299 296 281 335 122 136 159 168 222 235 219 235 226 196 201 182 220 200 138 215 202 188 167 231 204 246 258 259 253 243 234 218 215 202 246 238
336 342 337 340 342 328 334 329 108 213 265 195 170 189 200 187 185 161 237 213 297 198 200 161 217 101 221 191 196 188 208 273 287 271 259 259 258 248 239 237 238 246 255 272
334 341 341 337 335 332 325 334 311 258 242 236 125 222 224 202 152 205 175 186 162 252 242 235 252 242 232 200 167 208 168 200 355 268 309 324 293 229 222 225 219 223 236 245
327 333 339 337 329 318 303 314 292 259 274 177 213 219 197 191 210 186 173 186 166 205 265 298 277 258 253 251 251 212 158 160 172 277 340 297 244 247 208 211 230 221 238 248
319 323 331 332 327 305 292 295 275 290 270 241 280 245 211 230 231 224 229 228 223 223 323 1 339 346 313 250 215 208 178 133 281 242 255 290 293 213 184 186 277 215 226 246
311 317 317 324 323 304 282 269 266 270 310 266 285 277 221 205 214 273 223 188 205 215 159 146 209 241 238 228 204 63 135 136 165 336 223 253 245 215 162 103 287 211 191 220
298 303 303 304 308 300 276 264 259 254 257 271 258 234 217 200 221 222 167 190 175 179 159 172 190 232 191 223 191 170 174 209 223 233 261 281 243 185 140 102 247 185 201 211
290 293 292 287 295 296 281 267 254 248 249 267 266 255 243 235 226 176 153 83 209 139 171 175 225 195 221 200 187 178 171 163 194 198 225 268 177 118 173 221 203 199 212 222
284 290 285 283 279 289 285 271 260 255 248 260 267 268 259 248 245 247 216 248 182 202 141 226 188 228 201 179 249 167 221 194 184 191 215 242 188 224 225 264 258 230 234 244
277 287 286 281 273 275 278 274 264 257 272 283 274 275 269 255 245 238 241 228 219 208 228 193 240 234 144 192 235 221 245 192 225 176 250 245 254 254 256 263 264 266 263 252
285 284 286 282 276 270 271 269 268 240 263 267 270 272 268 266 257 236 235 239 244 229 212 210 213 215 208 226 244 216 195 143 208 255 266 278 273 271 274 275 257 272 265 261
274 278 282 277 276 273 274 263 261 240 221 269 284 280 274 258 253 250 237 238 238 233 211 223 230 231 248 237 300 260 211 226 213 247 244 237 268 280 280 284 286 276 257 255
277 280 273 270 274 274 265 233 247 248 223 257 280 277 267 249 234 238 233 226 225 224 219 224 247 247 244 223 234 248 244 236 235 246 257 260 266 277 283 261 261 261 252 264
267 293 287 274 272 286 240 224 222 213 205 235 277 267 256 241 221 195 211 215 206 207 223 232 240 244 218 233 241 253 249 258 250 249 254 265 262 257 262 260 271 259 267 263
276 281 284 285 286 285 244 239 210 182 174 196 246 247 271 191 169 153 172 177 192 218 238 238 232 244 219 258 240 253 260 259 263 260 254 260 265 271 267 265 258 252 258 261
285 284 283 287 287 262 245 247 228 186 196 204 206 200 217 177 176 152 174 175 188 221 223 223 183 207 228 238 252 259 264 250 261 268 265 269 270 271 264 254 252 249 253 265
286 280 284 259 228 237 238 193 188 207 231 235 226 193 213 177 176 179 156 193 221 224 219 187 225 251 256 260 263 268 272 270 269 265 265 259 262 264 269 254 255 258 262 259
280 235 225 236 247 217 211 220 193 203 236 223 212 194 187 202 151 181 206 196 204 237 215 179 248 258 251 293 283 287 288 290 282 268 269 266 261 267 270 270 266 251 248 245
235 283 266 221 212 215 212 208 213 191 224 192 200 217 209 180 173 163 185 216 187 246 144 206 255 247 258 308 328 330 323 306 290 293 282 276 265 255 259 269 267 237 219 220
261 244 237 197 205 224 218 195 203 217 195 180 184 183 172 166 186 192 181 200 218 134 189 230 236 265 299 333 338 344 348 333 320 315 304 288 271 259 247 254 228 209 210 220
208 208 223 202 213 237 195 186 198 214 187 173 177 163 176 170 177 195 208 199 126 206 232 236 253 276 322 352 352 344 347 343 330 327 325 314 275 238 233 226 207 203 216 248
212 201 220 223 231 260 254 232 219 193 198 164 169 217 196 176 210 193 185 175 222 217 231 233 223 13 354 350 342 342 341 345 341 337 337 333 295 230 225 208 209 218 242 266
215 207 226 231 232 246 226 231 216 196 175 173 194 206 224 220 218 186 201 168 216 234 214 236 291 356 350 350 342 337 340 345 347 344 346 339 267 234 233 246 245 243 257 294
234 213 218 215 203 228 221 221 205 205 177 231 201 188 236 129 210 206 194 212 218 202 187 336 328 323 346 341 340 340 343 0 7 4 349 341 307 247 237 234 235 248 265 291
Height
1539 1535 1531 1526 1523 1521 1520 1518 1517 1517 1516 1516 1520 1531 1527 1529 1529 1529 1530 1531 1530 1530 1529 1530 1528 1528 1529 1530 1531 1532 1532 1533 1543 1533 1521 1523 1527 1530 1532 1547 1531 1534 1529 1508
1539 1536 1532 1528 1524 1521 1520 1520 1519 1517 1516 1528 1531 1528 1528 1528 1530 1530 1528 1528 1529 1529 1530 1532 1527 1527 1528 1529 1530 1532 1533 1540 1553 1535 1531 1524 1524 1522 1523 1525 1526 1526 1536 1506
1538 1535 1532 1529 1526 1523 1521 1521 1523 1519 1517 1518 1523 1527 1528 1528 1528 1528 1528 1528 1527 1527 1528 1527 1528 1528 1529 1528 1529 1530 1532 1534 1535 1536 1520 1520 1522 1516 1516 1520 1532 1521 1506 1489
1538 1534 1531 1529 1526 1524 1522 1521 1522 1522 1525 1521 1520 1521 1524 1525 1528 1528 1528 1527 1526 1525 1526 1526 1528 1524 1527 1529 1529 1530 1531 1535 1533 1524 1519 1516 1514 1512 1511 1514 1508 1512 1487 1488
1537 1534 1530 1528 1525 1524 1523 1522 1521 1522 1521 1520 1522 1522 1520 1519 1522 1525 1526 1526 1523 1523 1524 1524 1525 1523 1524 1526 1529 1530 1528 1532 1525 1522 1509 1509 1509 1501 1500 1498 1496 1493 1486 1479
1535 1534 1530 1527 1525 1524 1523 1523 1521 1520 1520 1521 1521 1520 1517 1515 1514 1517 1518 1521 1523 1522 1521 1520 1519 1518 1518 1519 1523 1527 1528 1532 1533 1526 1510 1510 1504 1484 1482 1482 1480 1478 1484 1455
1533 1532 1530 1527 1525 1523 1524 1523 1523 1521 1520 1519 1518 1514 1513 1514 1516 1517 1515 1516 1518 1517 1517 1516 1515 1513 1513 1515 1516 1518 1522 1525 1531 1528 1521 1522 1473 1465 1466 1468 1463 1463 1458 1453
1530 1530 1528 1526 1525 1523 1522 1523 1524 1523 1520 1515 1512 1512 1513 1513 1513 1513 1513 1513 1513 1513 1515 1518 1518 1515 1511 1509 1510 1512 1515 1521 1526 1530 1525 1493 1463 1463 1464 1464 1457 1448 1450 1448
1526 1527 1526 1524 1524 1522 1521 1521 1522 1522 1521 1513 1512 1510 1510 1513 1513 1512 1509 1509 1511 1513 1513 1516 1518 1518 1506 1510 1512 1510 1512 1515 1524 1527 1526 1503 1465 1458 1459 1459 1466 1440 1440 1441
1523 1521 1523 1521 1520 1520 1519 1519 1519 1520 1518 1510 1511 1510 1509 1509 1509 1508 1507 1508 1508 1509 1514 1517 1520 1514 1502 1508 1511 1517 1514 1513 1515 1515 1519 1489 1458 1456 1458 1464 1452 1436 1438 1438
1521 1518 1517 1518 1517 1516 1517 1516 1515 1516 1513 1507 1506 1507 1506 1506 1506 1507 1506 1508 1506 1509 1511 1513 1509 1508 1499 1498 1496 1503 1507 1514 1513 1511 1514 1497 1448 1455 1458 1441 1435 1436 1438 1438
1516 1516 1514 1512 1514 1513 1511 1512 1512 1511 1510 1502 1500 1500 1501 1501 1501 1502 1501 1499 1499 1499 1503 1502 1499 1498 1498 1497 1496 1485 1493 1480 1487 1484 1467 1445 1442 1437 1436 1436 1435 1435 1435 1436
1510 1511 1511 1509 1507 1508 1508 1505 1507 1508 1504 1496 1491 1486 1489 1491 1492 1497 1498 1494 1494 1493 1494 1493 1494 1493 1489 1492 1488 1476 1469 1466 1469 1463 1434 1438 1440 1436 1434 1432 1430 1431 1431 1431
1504 1505 1506 1506 1503 1500 1502 1501 1501 1504 1505 1497 1482 1481 1482 1483 1483 1486 1490 1490 1491 1490 1489 1489 1489 1489 1478 1477 1471 1467 1460 1462 1459 1452 1432 1436 1429 1429 1427 1425 1425 1425 1424 1424
1499 1499 1500 1500 1499 1496 1493 1493 1495 1496 1502 1494 1483 1477 1475 1475 1478 1478 1480 1483 1486 1488 1489 1487 1485 1476 1476 1471 1470 1449 1449 1442 1448 1430 1419 1424 1419 1419 1420 1420 1419 1418 1418 1419
1493 1492 1492 1493 1493 1490 1488 1486 1486 1489 1492 1492 1485 1475 1469 1467 1466 1470 1474 1474 1479 1484 1483 1481 1477 1473 1471 1468 1461 1427 1424 1424 1425 1415 1413 1418 1412 1412 1412 1413 1414 1413 1413 1413
1486 1486 1486 1486 1485 1482 1480 1479 1478 1479 1486 1489 1483 1471 1466 1465 1466 1463 1469 1472 1474 1475 1478 1473 1471 1467 1466 1456 1443 1403 1413 1414 1412 1411 1416 1410 1408 1406 1406 1406 1406 1406 1406 1405
1480 1481 1481 1480 1478 1475 1474 1473 1474 1476 1480 1483 1476 1465 1466 1465 1465 1466 1466 1468 1471 1471 1469 1465 1464 1462 1457 1440 1416 1400 1405 1411 1409 1405 1405 1401 1399 1399 1398 1399 1399 1399 1399 1400
1475 1474 1475 1474 1471 1470 1469 1470 1470 1469 1473 1469 1463 1462 1458 1459 1462 1462 1467 1467 1466 1465 1461 1459 1459 1451 1438 1410 1394 1397 1398 1398 1395 1396 1394 1392 1390 1387 1386 1390 1392 1392 1393 1394
1472 1470 1471 1468 1466 1465 1468 1466 1467 1467 1461 1458 1450 1452 1456 1455 1459 1461 1465 1464 1460 1457 1450 1451 1445 1427 1417 1394 1394 1393 1389 1387 1387 1386 1380 1382 1382 1383 1381 1379 1380 1384 1386 1388
1466 1466 1465 1464 1461 1465 1464 1461 1459 1457 1453 1448 1445 1444 1448 1449 1453 1456 1458 1455 1454 1448 1442 1446 1436 1418 1392 1388 1390 1386 1380 1377 1374 1375 1372 1373 1373 1375 1375 1375 1375 1376 1379 1382
1462 1463 1461 1461 1460 1458 1458 1451 1449 1443 1442 1438 1439 1438 1439 1441 1445 1446 1449 1446 1447 1439 1439 1441 1429 1396 1383 1383 1383 1381 1375 1368 1367 1366 1363 1363 1363 1366 1369 1370 1370 1371 1374 1377
1459 1462 1459 1456 1453 1451 1445 1437 1435 1434 1424 1425 1432 1433 1433 1438 1440 1440 1440 1438 1435 1437 1436 1427 1403 1384 1384 1382 1380 1375 1372 1367 1362 1360 1358 1357 1356 1358 1362 1365 1365 1369 1372 1373
1454 1452 1449 1444 1439 1430 1421 1422 1421 1418 1418 1420 1425 1428 1428 1428 1433 1430 1428 1427 1430 1431 1433 1413 1390 1382 1381 1380 1379 1374 1369 1366 1362 1359 1355 1352 1351 1355 1359 1362 1364 1367 1371 1371
1443 1438 1433 1426 1416 1416 1416 1415 1417 1416 1416 1418 1422 1424 1424 1422 1421 1418 1419 1422 1418 1415 1405 1390 1379 1379 1379 1379 1376 1373 1368 1364 1360 1357 1355 1353 1353 1357 1360 1362 1364 1366 1367 1368
1424 1421 1417 1414 1415 1415 1415 1414 1414 1414 1415 1417 1419 1418 1415 1412 1409 1408 1404 1408 1409 1389 1381 1376 1378 1374 1377 1377 1375 1370 1366 1363 1359 1357 1355 1354 1355 1357 1360 1362 1363 1365 1365 1364
1410 1403 1402 1404 1407 1407 1409 1409 1411 1413 1413 1412 1410 1408 1405 1401 1401 1399 1395 1391 1375 1371 1373 1375 1376 1376 1376 1374 1372 1368 1364 1361 1359 1359 1358 1356 1356 1358 1358 1359 1361 1362 1362 1362